La Grange, GA

6:49 AM EDT on October 21, 2017 (GMT -0400)
Lagrange-Callaway

Weather History for KLGC - December, 2012

Change the Weather History Date:

Friday, December 21, 2012

  Actual Average Record
Temperature  
Mean Temperature 40 °F -  
Max Temperature 48 °F 56 °F 75 °F (1967)
Min Temperature 32 °F 35 °F 16 °F (1981)
Degree Days  
Heating Degree Days 25    
Moisture  
Dew Point 20 °F    
Average Humidity 47    
Maximum Humidity 62    
Minimum Humidity 27    
Precipitation  
Precipitation 0.00 in - - ()
Sea Level Pressure  
Sea Level Pressure 30.10 in    
Wind  
Wind Speed 15 mph (NW)    
Max Wind Speed 22 mph    
Max Gust Speed 34 mph    
Visibility 10 miles    
Events      
Averages and records for this station are not official NWS values.
T = Trace of Precipitation, MM = Missing Value Source: NWS Daily Summary

Daily Weather History Graph

Daily Weather History Graph

Search for Another Location

Airport or City:

Trip Planner

Search our weather history database for the weather conditions in past years. The results will help you decide how hot, cold, wet, or windy it might be!

Date:

Astronomy

Dec. 21, 2012 Rise Set
Actual Time 7:39 AM EST 5:37 PM EST
Civil Twilight 7:12 AM EST 6:05 PM EST
Nautical Twilight 6:41 AM EST 6:36 PM EST
Astronomical Twilight 6:10 AM EST 7:06 PM EST
Moon 1:12 PM EST 1:38 AM EST
Length of Visible Light 10h 53m
Length of Day
9h 58m
Waxing Gibbous, 64% of the Moon is Illuminated
Dec 21
Waxing Gibbous
Dec 28
Full
Jan 4
Last Quarter
Jan 11
New
Jan 18
First Quarter

Hourly Weather History & Observations

Time (EST) Temp. Windchill Dew Point Humidity Pressure Visibility Wind Dir Wind Speed Gust Speed Precip Events Conditions
12:15 AM 42.8 °F 35.4 °F 30.4 °F 62% 29.99 in 10.0 mi WNW 15.0 mph 24.2 mph N/A   Overcast
12:35 AM 43.0 °F 35.7 °F 29.8 °F 60% 29.99 in 10.0 mi West 15.0 mph 19.6 mph N/A   Overcast
12:55 AM 43.2 °F 35.9 °F 30.4 °F 61% 29.98 in 10.0 mi WNW 15.0 mph 21.9 mph N/A   Overcast
1:15 AM 42.3 °F 34.1 °F 29.5 °F 61% 29.98 in 10.0 mi WNW 17.3 mph 23.0 mph N/A   Mostly Cloudy
1:35 AM 42.1 °F 32.8 °F 28.8 °F 59% 29.98 in 10.0 mi WNW 21.9 mph 29.9 mph N/A   Mostly Cloudy
1:55 AM 41.0 °F 32.8 °F 24.8 °F 53% 29.99 in 10.0 mi NW 16.1 mph 31.1 mph N/A   Scattered Clouds
2:15 AM 40.1 °F 30.5 °F 23.9 °F 52% 30.00 in 10.0 mi NW 20.7 mph 34.5 mph N/A   Clear
2:35 AM 39.4 °F 30.7 °F 23.7 °F 54% 30.00 in 10.0 mi NW 16.1 mph 27.6 mph N/A   Clear
2:55 AM 39.0 °F 30.6 °F 23.5 °F 54% 30.01 in 10.0 mi WNW 15.0 mph 23.0 mph N/A   Clear
3:15 AM 38.3 °F 30.5 °F 23.9 °F 56% 30.01 in 10.0 mi WNW 12.7 mph 17.3 mph N/A   Clear
3:35 AM 37.8 °F 29.8 °F 24.3 °F 58% 30.01 in 10.0 mi WNW 12.7 mph - N/A   Clear
3:55 AM 37.8 °F 29.0 °F 24.1 °F 58% 30.02 in 10.0 mi WNW 15.0 mph 18.4 mph N/A   Clear
4:15 AM 37.4 °F 28.5 °F 24.6 °F 60% 30.02 in 10.0 mi WNW 15.0 mph - N/A   Clear
4:35 AM 37.0 °F 28.1 °F 24.8 °F 61% 30.02 in 10.0 mi WNW 15.0 mph 18.4 mph N/A   Clear
4:55 AM 36.9 °F 28.7 °F 24.1 °F 60% 30.03 in 10.0 mi West 12.7 mph 21.9 mph N/A   Clear
5:15 AM 36.3 °F 26.8 °F 23.2 °F 59% 30.03 in 10.0 mi WNW 16.1 mph 19.6 mph N/A   Clear
5:35 AM 36.5 °F 28.2 °F 21.6 °F 55% 30.04 in 10.0 mi WNW 12.7 mph 21.9 mph N/A   Clear
5:55 AM 36.0 °F 27.5 °F 21.0 °F 55% 30.05 in 10.0 mi WNW 12.7 mph 21.9 mph N/A   Clear
6:15 AM 35.6 °F 26.6 °F 20.7 °F 55% 30.05 in 10.0 mi WNW 13.8 mph 23.0 mph N/A   Clear
6:35 AM 35.2 °F 24.7 °F 20.1 °F 54% 30.06 in 10.0 mi WNW 18.4 mph 23.0 mph N/A   Clear
6:55 AM 35.4 °F 26.4 °F 19.8 °F 53% 30.07 in 10.0 mi WNW 13.8 mph 25.3 mph N/A   Clear
7:15 AM 34.9 °F 25.3 °F 19.8 °F 54% 30.07 in 10.0 mi WNW 15.0 mph 26.5 mph N/A   Clear
7:35 AM 35.1 °F 25.9 °F 19.0 °F 52% 30.07 in 10.0 mi WNW 13.8 mph 23.0 mph N/A   Clear
7:55 AM 34.5 °F 24.5 °F 19.6 °F 54% 30.08 in 10.0 mi WNW 16.1 mph 19.6 mph N/A   Clear
8:15 AM 34.9 °F 24.6 °F 19.9 °F 55% 30.08 in 10.0 mi WNW 17.3 mph - N/A   Clear
8:35 AM 35.8 °F 26.5 °F 19.9 °F 53% 30.09 in 10.0 mi NW 15.0 mph 25.3 mph N/A   Clear
8:55 AM 36.5 °F 26.3 °F 19.8 °F 51% 30.10 in 10.0 mi NW 18.4 mph 27.6 mph N/A   Clear
9:15 AM 37.2 °F 27.6 °F 20.1 °F 50% 30.10 in 10.0 mi WNW 17.3 mph 25.3 mph N/A   Clear
9:35 AM 38.3 °F 28.1 °F 20.1 °F 48% 30.11 in 10.0 mi NW 20.7 mph 27.6 mph N/A   Clear
9:55 AM 39.0 °F 29.0 °F 20.3 °F 47% 30.12 in 10.0 mi NW 20.7 mph 27.6 mph N/A   Clear
10:15 AM 39.9 °F 31.8 °F 20.7 °F 46% 30.12 in 10.0 mi NW 15.0 mph 24.2 mph N/A   Clear
10:35 AM 40.6 °F 31.4 °F 20.1 °F 44% 30.13 in 10.0 mi NW 19.6 mph 27.6 mph N/A   Clear
10:55 AM 41.5 °F 32.6 °F 20.1 °F 42% 30.14 in 10.0 mi NW 19.6 mph 24.2 mph N/A   Clear
11:15 AM 42.3 °F 34.1 °F 19.9 °F 41% 30.13 in 10.0 mi WNW 17.3 mph 25.3 mph N/A   Clear
11:35 AM 43.0 °F 34.8 °F 19.4 °F 39% 30.12 in 10.0 mi NW 18.4 mph 28.8 mph N/A   Clear
11:55 AM 44.2 °F 36.7 °F 20.3 °F 39% 30.12 in 10.0 mi NW 17.3 mph 24.2 mph N/A   Clear
12:15 PM 44.6 °F 36.6 °F 19.8 °F 37% 30.11 in 10.0 mi NW 19.6 mph 31.1 mph N/A   Clear
12:35 PM 45.3 °F 38.1 °F 19.2 °F 35% 30.10 in 10.0 mi NW 17.3 mph 26.5 mph N/A   Clear
12:55 PM 46.2 °F 39.0 °F 19.0 °F 34% 30.10 in 10.0 mi NW 18.4 mph 34.5 mph N/A   Clear
1:15 PM 46.4 °F 39.8 °F 18.9 °F 33% 30.09 in 10.0 mi NW 16.1 mph 28.8 mph N/A   Clear
1:35 PM 47.1 °F - 18.7 °F 32% 30.09 in 10.0 mi NW 21.9 mph 29.9 mph N/A   Clear
1:55 PM 47.7 °F - 18.9 °F 32% 30.09 in 10.0 mi NW 18.4 mph 29.9 mph N/A   Clear
2:15 PM 48.6 °F - 18.3 °F 30% 30.09 in 10.0 mi NW 13.8 mph 27.6 mph N/A   Clear
2:35 PM 48.2 °F - 17.6 °F 30% 30.09 in 10.0 mi NW 18.4 mph 29.9 mph N/A   Clear
2:55 PM 48.6 °F - 17.2 °F 29% 30.09 in 10.0 mi WNW 18.4 mph 29.9 mph N/A   Clear
3:15 PM 48.7 °F - 18.0 °F 29% 30.09 in 10.0 mi WNW 19.6 mph - N/A   Clear
3:35 PM 48.6 °F - 17.2 °F 29% 30.09 in 10.0 mi WNW 20.7 mph 25.3 mph N/A   Clear
3:55 PM 48.7 °F - 16.2 °F 27% 30.09 in 10.0 mi NNW 19.6 mph 26.5 mph N/A   Clear
4:15 PM 48.4 °F - 16.2 °F 28% 30.10 in 10.0 mi NW 15.0 mph 24.2 mph N/A   Clear
4:35 PM 47.7 °F - 15.8 °F 28% 30.11 in 10.0 mi WNW 18.4 mph 27.6 mph N/A   Clear
4:55 PM 47.3 °F - 16.2 °F 29% 30.12 in 10.0 mi NW 16.1 mph 21.9 mph N/A   Clear
5:15 PM 46.4 °F 39.8 °F 16.0 °F 30% 30.12 in 10.0 mi WNW 16.1 mph 26.5 mph N/A   Clear
5:35 PM 44.4 °F 38.6 °F 16.7 °F 33% 30.12 in 10.0 mi WNW 11.5 mph - N/A   Clear
5:55 PM 43.9 °F 37.2 °F 16.7 °F 34% 30.13 in 10.0 mi WNW 13.8 mph 18.4 mph N/A   Clear
6:15 PM 43.3 °F 37.7 °F 16.7 °F 34% 30.13 in 10.0 mi WNW 10.4 mph - N/A   Clear
6:35 PM 40.3 °F 34.9 °F 18.1 °F 41% 30.14 in 10.0 mi WNW 8.1 mph - N/A   Clear
6:55 PM 40.1 °F 35.3 °F 18.1 °F 41% 30.15 in 10.0 mi WNW 6.9 mph - N/A   Clear
7:15 PM 38.7 °F 32.9 °F 18.0 °F 43% 30.16 in 10.0 mi WNW 8.1 mph - N/A   Clear
7:35 PM 37.2 °F 32.6 °F 19.2 °F 48% 30.17 in 10.0 mi NW 5.8 mph - N/A   Clear
7:55 PM 37.9 °F - 19.0 °F 47% 30.18 in 10.0 mi Calm Calm - N/A   Clear
8:15 PM 37.2 °F 33.6 °F 19.2 °F 48% 30.18 in 10.0 mi NW 4.6 mph - N/A   Clear
8:35 PM 34.5 °F 28.6 °F 20.3 °F 56% 30.19 in 10.0 mi WNW 6.9 mph - N/A   Clear
8:55 PM 34.2 °F 28.2 °F 19.8 °F 56% 30.19 in 10.0 mi WNW 6.9 mph - N/A   Clear
9:15 PM 32.4 °F 24.6 °F 20.7 °F 62% 30.19 in 10.0 mi WNW 9.2 mph - N/A   Clear
9:35 PM 33.3 °F 25.7 °F 20.5 °F 59% 30.19 in 10.0 mi NW 9.2 mph - N/A   Clear
9:55 PM 34.5 °F 27.9 °F 19.4 °F 54% 30.20 in 10.0 mi NW 8.1 mph - N/A   Clear
10:15 PM 34.7 °F 28.1 °F 18.5 °F 52% 30.20 in 10.0 mi WNW 8.1 mph - N/A   Clear
10:35 PM 35.6 °F 29.9 °F 18.5 °F 50% 30.21 in 10.0 mi NNW 6.9 mph - N/A   Clear
10:55 PM 35.4 °F 28.4 °F 18.1 °F 49% 30.21 in 10.0 mi NW 9.2 mph - N/A   Clear
11:15 PM 34.3 °F 25.9 °F 18.5 °F 52% 30.21 in 10.0 mi NW 11.5 mph - N/A   Clear
11:35 PM 36.3 °F 28.0 °F 16.7 °F 45% 30.21 in 10.0 mi NW 12.7 mph 17.3 mph N/A   Clear
11:55 PM 35.8 °F 27.8 °F 17.1 °F 47% 30.21 in 10.0 mi NW 11.5 mph 18.4 mph N/A   Clear